BREEZE-M DEB, 37202

Orbit data source: Space-Track

BREEZE-M DEB, 37202 is space debris in HEO originally from a launch on Fri, 14 Mar 2008 UTC launched from the Tyuratam Missile And Space Complex (TTMTR). Debris objects in space refer to the collection of defunct objects orbiting the Earth. Examples of debris include non-operational satellites, rocket bodies, and fragments generated from explosions, collisions, or faulty payload assembly.

Loading next visibility...
Identifier
37202, 2008-011G
Orbit
HEO
Country
Flag of CISCIS
Related business
Manufacturer
Unknown
Mission
Spacecraft
Bus & Motor
Unknown
Mass
Unknown
Launch date (UTC)
2008-03-14 (18 years ago)
Launch vehicle
Unknown
Launch site
Tyuratam Missile And Space Complex (TTMTR)
Object type
Payload
Rocket body
Debris
Shape & HBR
Unknown shape, 0.4 m
Radar Cross Section
Medium (>0.1 m² and <1 m²)

Expand to show TLE details & history
Last TLE update: 1 week ago

TLE from 1 week ago
0 BREEZE-M DEB
1 37202U 08011G   26167.22997210 -.00001007  00000-0 -25614-1 0  9997
2 37202  49.3539   7.1463 6401897 221.9221  65.5629  3.07237248158456
Epoch: 2026-06-16T05:31Z
TLE epoch observation values (Epoch: 2026-06-16T05:31:09.589Z)
Latitude
-0.0001°
Longitude
19.84729°
Altitude
16,134.55 km
Speed
3.933 km/s
True Right ascension
00h 28m 34s
True Declination
0° 00' 00"
Sunlit
Object was in daylight at epoch
Visualization orbit readout
Latitude
Unknown
Longitude
Unknown
Altitude
Unknown
Speed
Unknown
Apparent Right ascension
Unknown
Apparent Declination
Unknown
Sunlit
N/A
Visualization observer readout
Local Sidereal Time
15:36:24
Azimuth
Unknown
Elevation
Unknown
Doppler factor
Unknown
Orbital elements
Apogee altitude
26,405.819 km
Perigee altitude
813.717 km
Semi-major axis
19,987.905 km
Eccentricity
0.64019
Inclination
49.3539°
RAAN
7.1463°
Arg. of periapsis
221.9221°
True anomaly
138.12286°
Mean anomaly
65.5629°
Eccentric anomaly
101.50594°
Mean motion
0.76805 °/min
Orbital period
468.72 mins
BSTAR
-0.025614
Loading maneuver chart data...
Computing Atmospheric mass density...
Loading historical data...
Loading historical data...
Loading historical data...
Loading historical data...
Loading historical data...
Loading historical data...
Loading historical data...

Documentation

Showing up to 5 results
|